Location: Dompnac
(44.5644°N, 4.1026°E)
Time: 12:31:08
(UTC+00:00)

Cosmos 2026 Rocket - Pass Details

Date: 20 January 2021
Orbit: 940 x 1000 km, 82.9° (Epoch: 28 February)

Event Time Altitude Azimuth Distance (km) Brightness Sun altitude
Rises 06:00:05 0° 352° (N) 3,704 6.8 -13.0°
Reaches altitude 10° 06:02:36 10° 353° (N) 2,759 6.1 -12.6°
Maximum altitude 06:08:59 83° 82° (E) 1,009 4.2 -11.5°
Drops below altitude 10° 06:15:21 10° 171° (S) 2,762 6.7 -10.4°
Sets 06:17:52 0° 172° (S) 3,708 7.4 -10.0°
